ATLAS 5 CENTAUR DEB, 44685

Orbit data source: Space-Track

ATLAS 5 CENTAUR DEB, 44685 is space debris in HEO originally from a launch on Wed, 17 Oct 2018 UTC launched from the Air Force Eastern Test Range (AFETR). Debris objects in space refer to the collection of defunct objects orbiting the Earth. Examples of debris include non-operational satellites, rocket bodies, and fragments generated from explosions, collisions, or faulty payload assembly.

Loading next visibility...
Identifier
44685, 2018-079AX
Orbit
HEO
Country
Flag of USUS
Related business
Flag of USUnited Launch Alliance/Lockheed Martin (US)
Manufacturer
ULA Decatur
Mission
Spacecraft
Bus & Motor
Unknown
Mass
Unknown
Launch date (UTC)
2018-10-17 (7 years ago)
Launch vehicle
Unknown
Launch site
Air Force Eastern Test Range (AFETR)
Object type
Payload
Rocket body
Debris
Shape & HBR
Unknown shape, 1.1 m
Radar Cross Section
RCS unknown

Expand to show TLE details & history
Last TLE update: 2 days ago

TLE from 2 days ago
0 ATLAS 5 CENTAUR DEB
1 44685U 18079AX  26033.55296660 -.00000138  00000-0  00000-0 0  9998
2 44685  12.3921  84.1603 4590394 216.3732 101.3214  1.69267159 41224
Epoch: 2026-02-02T13:16Z
TLE epoch observation values (Epoch: 2026-02-02T13:16:16.314Z)
Latitude
0.00002°
Longitude
112.44392°
Altitude
30,871.83 km
Speed
2.828 km/s
True Right ascension
05h 37m 02s
True Declination
0° 00' 00"
Sunlit
Object was in daylight at epoch
Visualization orbit readout
Latitude
Unknown
Longitude
Unknown
Altitude
Unknown
Speed
Unknown
Apparent Right ascension
Unknown
Apparent Declination
Unknown
Sunlit
N/A
Visualization observer readout
Local Sidereal Time
03:13:13
Azimuth
Unknown
Elevation
Unknown
Doppler factor
Unknown
Orbital elements
Apogee altitude
37,017.83 km
Perigee altitude
9,711.564 km
Semi-major axis
29,742.834 km
Eccentricity
0.45904
Inclination
12.3921°
RAAN
84.1603°
Arg. of periapsis
216.3732°
True anomaly
143.62668°
Mean anomaly
101.3214°
Eccentric anomaly
123.30318°
Mean motion
0.42313 °/min
Orbital period
850.81 mins
BSTAR
0
Loading maneuver chart data...
Computing Atmospheric mass density...

Documentation

Showing up to 5 results
|